sat.trackr.live / text

‹ back to catalog

STARLINK-4254

NORAD 52998 · 2022-076N

PAYLOAD ACTIVE UNKNOWN

§ Identity

Operator
Country
US
Launch date
2022-07-07
Launch site
AFETR
Launch vehicle
Mass (kg)
RCS (m²)

Purposes: comms

External: N2YO · Heavens-Above · Gunter

§ Orbital elements

Epoch: 2026-09-18T19:10:24.487392Z

Period
93.85 min
Inclination
53.1594°
Eccentricity
0.0001182
Mean motion
15.34384778 rev/d
Perigee alt
461.9 km
Apogee alt
463.6 km
Semi-major
6,840.9 km
B*
-1.1630e-6
RAAN
291.3409°
Arg perigee
86.5034°
Mean anomaly
273.6104°
Rev number
23,221

§ Raw data

STARLINK-42541 52998U 22076N   26261.79889453 -.00000415  00000+0 -11630-5 0  99972 52998  53.1594 291.3409 0001182  86.5034 273.6104 15.34384778232211

JSON: /api/v1/satellites/52998 · /tle

For live sub-satellite position, see the globe view (requires WebGL).

§ Visibility from observer

Set your observer location to see the next 7 days of passes ≥ 10°. The values pass through the URL so the page stays shareable.

No JS? Fill the form by hand. The geolocation button needs JavaScript.